Weather in Chekhov

Russia / Sakhalin District     47°26′09″N   141°58′42″E
temp.,
°C
wind,
m/s
gust,
m/s
humid.,
%
clouds,
%
prec.,
mm/h
press.,
hPa
HPBL,
m
19 may, wed
wed1923:00+11s514560 0.0 1009317
02:00+11s513580 0.0 1008281
05:00+10sse511620 0.0 1008222
08:00+12s615590 0.0 1008443
11:00+15s816540 0.0 1008601
14:00+15s916500 0.0 1008648
17:00+14s816550 0.0 1007572
20:00+12s615640 0.0 1008492
20 may, thu
thu2023:00+10s412725 0.0 1010289
02:00+9sse5127345 0.0 1009281
05:00+10s4117372 0.0 1009287
08:00+11s511735 0.0 1011357
11:00+13ssw611657 0.0 1010564
14:00+14ssw713656 0.0 1009617
17:00+13s713744 0.0 1007465
20:00+11s7158741 0.0 1008465
21 may, fri
fri2123:00+10ssw5139685 0.3 1009537
02:00+10s599896 0.9 1009300
05:00+9sse489898 0.9 1009280
08:00+10sse249568 0.0 1010197
11:00+16ssw23729 0.0 1009435
14:00+16w236929 0.0 1009506
17:00+16s3570100 0.1 1008526
20:00+12ese1382100 0.0 1009234
22 may, sat
sat2223:00+8e3391100 0.0 101055
02:00+8e3389100 0.0 100944
05:00+8e3389100 0.0 100847
08:00+10e2281100 0.0 1008100
11:00+16ene1163100 0.0 1008444
14:00+16ese1258100 0.0 1008640
17:00+17e1357100 0.0 1008732
20:00+13ese2373100 0.0 1009127
23 may, sun
sun2323:00+7ese3384100 0.0 101154
02:00+7ese2287100 0.0 101252
05:00+7ese2289100 0.0 101133
08:00+10se0180100 0.0 1012113
11:00+15sw2165100 0.0 1011494
14:00+15wsw2263100 0.0 1011625
17:00+13ssw347088 0.0 1011402
20:00+12sse34774 0.0 1011150